SB KEPS @ AMSAT $ORB10070.O Orbital Elements 10070.OSCAR
HR AMSAT ORBITAL ELEMENTS FOR OSCAR SATELLITES FROM WA5QGD FORT WORTH,TX March 11, 2010 Send Subscribe/unsubscribe to KEPS at http://www.amsat.org/mailman/listinfo/keps BID: ORB10070.O TO ALL RADIO AMATEURS BT
Satellite: AO-07 Catalog number: 07530 Epoch time: 10066.44971123 Element set: 721 Inclination: 101.4093 deg RA of node: 086.2436 deg Eccentricity: 0.0012142 Arg of perigee: 113.2849 deg Mean anomaly: 246.9502 deg Mean motion: 12.53577976 rev/day Decay rate: -2.7e-07 rev/day^2 Epoch rev: 61570 Checksum: 281
Satellite: FO-29 Catalog number: 24278 Epoch time: 10067.60400914 Element set: 0264 Inclination: 098.5205 deg RA of node: 270.6103 deg Eccentricity: 0.0351161 Arg of perigee: 024.8853 deg Mean anomaly: 336.8762 deg Mean motion: 13.52948256 rev/day Decay rate: -4.0e-07 rev/day^2 Epoch rev: 66950 Checksum: 301
Satellite: SO-33 Catalog number: 25509 Epoch time: 10067.82181575 Element set: 0665 Inclination: 031.4319 deg RA of node: 356.0753 deg Eccentricity: 0.0353791 Arg of perigee: 132.3958 deg Mean anomaly: 230.7172 deg Mean motion: 14.28293514 rev/day Decay rate: 9.8e-07 rev/day^2 Epoch rev: 59369 Checksum: 325
Satellite: RS-22 Catalog number: 27939 Epoch time: 10067.68156601 Element set: 0027 Inclination: 097.9070 deg RA of node: 297.3474 deg Eccentricity: 0.0014097 Arg of perigee: 021.8279 deg Mean anomaly: 338.3492 deg Mean motion: 14.63388841 rev/day Decay rate: 8.2e-07 rev/day^2 Epoch rev: 34425 Checksum: 325
Satellite: VO-52 Catalog number: 28650 Epoch time: 10065.96025778 Element set: 0452 Inclination: 097.7047 deg RA of node: 123.3226 deg Eccentricity: 0.0025955 Arg of perigee: 250.1331 deg Mean anomaly: 109.7052 deg Mean motion: 14.81693688 rev/day Decay rate: -5.6e-07 rev/day^2 Epoch rev: 26155 Checksum: 309
Satellite: SO-67 Catalog number: 35870 Epoch time: 10066.11829584 Element set: 510 Inclination: 097.3455 deg RA of node: 117.7672 deg Eccentricity: 0.0012783 Arg of perigee: 059.2172 deg Mean anomaly: 353.1510 deg Mean motion: 15.22924020 rev/day Decay rate: 9.50e-06 rev/day^2 Epoch rev: 2593 Checksum: 292
Satellite: HO-68 Catalog number: 36122 Epoch time: 10067.68936806 Element set: 0151 Inclination: 100.4815 deg RA of node: 129.0914 deg Eccentricity: 0.0007274 Arg of perigee: 204.2497 deg Mean anomaly: 155.8273 deg Mean motion: 13.16280003 rev/day Decay rate: -4.5e-07 rev/day^2 Epoch rev: 01099 Checksum: 283
/EX SB KEPS @ AMSAT $ORB10070.D Orbital Elements 10070.MICROS
HR AMSAT ORBITAL ELEMENTS FOR THE MICROSATS FROM WA5QGD FORT WORTH,TX March 11, 2010 Send Subscribe/unsubscribe to KEPS at http://www.amsat.org/mailman/listinfo/keps BID: ORB10070.D TO ALL RADIO AMATEURS BT
Satellite: UO-11 Catalog number: 14781 Epoch time: 10065.71629039 Element set: 191 Inclination: 098.0686 deg RA of node: 117.0810 deg Eccentricity: 0.0008596 Arg of perigee: 203.5595 deg Mean anomaly: 156.5224 deg Mean motion: 14.79775924 rev/day Decay rate: 3.20e-06 rev/day^2 Epoch rev: 39665 Checksum: 319
Satellite: AO-16 Catalog number: 20439 Epoch time: 10065.88526143 Element set: 839 Inclination: 098.3202 deg RA of node: 027.8837 deg Eccentricity: 0.0011894 Arg of perigee: 108.6645 deg Mean anomaly: 251.5836 deg Mean motion: 14.31850627 rev/day Decay rate: 1.1e-07 rev/day^2 Epoch rev: 5074 Checksum: 302
Satellite: LO-19 Catalog number: 20442 Epoch time: 10067.78592619 Element set: 0752 Inclination: 098.2811 deg RA of node: 035.9163 deg Eccentricity: 0.0012854 Arg of perigee: 098.8970 deg Mean anomaly: 261.3666 deg Mean motion: 14.32084024 rev/day Decay rate: 6.2e-07 rev/day^2 Epoch rev: 05118 Checksum: 306
Satellite: AO-27 Catalog number: 22825 Epoch time: 10065.45633486 Element set: 472 Inclination: 098.4744 deg RA of node: 016.1228 deg Eccentricity: 0.0007757 Arg of perigee: 207.5313 deg Mean anomaly: 152.5470 deg Mean motion: 14.29288374 rev/day Decay rate: 7.0e-08 rev/day^2 Epoch rev: 85737 Checksum: 316
Satellite: IO-26 Catalog number: 22826 Epoch time: 10067.77989370 Element set: 0210 Inclination: 098.4684 deg RA of node: 019.0228 deg Eccentricity: 0.0008567 Arg of perigee: 194.8693 deg Mean anomaly: 165.2246 deg Mean motion: 14.29543374 rev/day Decay rate: 2.4e-07 rev/day^2 Epoch rev: 85781 Checksum: 336
Satellite: GO-32 Catalog number: 25397 Epoch time: 10065.17360531 Element set: 128 Inclination: 098.3168 deg RA of node: 078.2872 deg Eccentricity: 0.0001386 Arg of perigee: 160.3802 deg Mean anomaly: 199.7431 deg Mean motion: 14.23172344 rev/day Decay rate: -8.7e-07 rev/day^2 Epoch rev: 60539 Checksum: 302
Satellite: NO-44 Catalog number: 26931 Epoch time: 10067.67039343 Element set: 0404 Inclination: 067.0509 deg RA of node: 102.9492 deg Eccentricity: 0.0006589 Arg of perigee: 263.6511 deg Mean anomaly: 096.3844 deg Mean motion: 14.29586903 rev/day Decay rate: 2.19e-06 rev/day^2 Epoch rev: 44038 Checksum: 314
Satellite: SO-50 Catalog number: 27607 Epoch time: 10067.69938348 Element set: 0121 Inclination: 064.5586 deg RA of node: 301.7319 deg Eccentricity: 0.0037268 Arg of perigee: 123.7537 deg Mean anomaly: 236.7113 deg Mean motion: 14.71507607 rev/day Decay rate: 2.1e-07 rev/day^2 Epoch rev: 38759 Checksum: 314
Satellite: CO-55 Catalog number: 27844 Epoch time: 10067.66557678 Element set: 0796 Inclination: 098.7140 deg RA of node: 078.0773 deg Eccentricity: 0.0010899 Arg of perigee: 099.7279 deg Mean anomaly: 260.5126 deg Mean motion: 14.20689200 rev/day Decay rate: 6.5e-07 rev/day^2 Epoch rev: 34681 Checksum: 350
Satellite: CO-57 Catalog number: 27848 Epoch time: 10067.68055389 Element set: 0749 Inclination: 098.7163 deg RA of node: 077.1670 deg Eccentricity: 0.0010415 Arg of perigee: 102.6765 deg Mean anomaly: 257.5560 deg Mean motion: 14.20484109 rev/day Decay rate: 3.9e-07 rev/day^2 Epoch rev: 34677 Checksum: 332
Satellite: AO-51 Catalog number: 28375 Epoch time: 10067.72092843 Element set: 0622 Inclination: 098.0581 deg RA of node: 066.9587 deg Eccentricity: 0.0085152 Arg of perigee: 042.3470 deg Mean anomaly: 318.4246 deg Mean motion: 14.40672663 rev/day Decay rate: 3.9e-07 rev/day^2 Epoch rev: 29904 Checksum: 317
Satellite: GENESAT1 Catalog number: 29655 Epoch time: 10066.15679461 Element set: 967 Inclination: 040.0191 deg RA of node: 326.1036 deg Eccentricity: 0.0007624 Arg of perigee: 298.2580 deg Mean anomaly: 061.7467 deg Mean motion: 15.76371109 rev/day Decay rate: 5.2242e-04 rev/day^2 Epoch rev: 18380 Checksum: 304
Satellite: CP3 Catalog number: 31129 Epoch time: 10065.55497851 Element set: 521 Inclination: 097.9533 deg RA of node: 110.5578 deg Eccentricity: 0.0102033 Arg of perigee: 191.5974 deg Mean anomaly: 168.2885 deg Mean motion: 14.52217789 rev/day Decay rate: 1.50e-06 rev/day^2 Epoch rev: 15296 Checksum: 313
Satellite: CO-65 Catalog number: 32785 Epoch time: 10065.91782283 Element set: 621 Inclination: 097.9074 deg RA of node: 132.2098 deg Eccentricity: 0.0013933 Arg of perigee: 257.2285 deg Mean anomaly: 102.7366 deg Mean motion: 14.81597077 rev/day Decay rate: 1.02e-06 rev/day^2 Epoch rev: 10034 Checksum: 303
Satellite: KKS-1 Catalog number: 33493 Epoch time: 10066.09591588 Element set: 271 Inclination: 098.0728 deg RA of node: 184.7996 deg Eccentricity: 0.0021177 Arg of perigee: 110.4005 deg Mean anomaly: 249.9483 deg Mean motion: 14.80880931 rev/day Decay rate: 5.37e-06 rev/day^2 Epoch rev: 6037 Checksum: 320
Satellite: SOHLA-1 Catalog number: 33496 Epoch time: 10067.72543768 Element set: 0045 Inclination: 098.0468 deg RA of node: 178.1582 deg Eccentricity: 0.0007002 Arg of perigee: 153.9205 deg Mean anomaly: 206.2391 deg Mean motion: 14.69474964 rev/day Decay rate: 1.70e-06 rev/day^2 Epoch rev: 06012 Checksum: 296
/EX SB KEPS @ AMSAT $ORB10070.W Orbital Elements 10070.WEATHER
HR AMSAT ORBITAL ELEMENTS FOR WEATHER SATELLITES FROM WA5QGD FORT WORTH,TX March 11, 2010 Send Subscribe/unsubscribe to KEPS at http://www.amsat.org/mailman/listinfo/keps BID: ORB10070.W TO ALL RADIO AMATEURS BT
Satellite: NOAA-10 Catalog number: 16969 Epoch time: 10065.32130922 Element set: 981 Inclination: 098.6689 deg RA of node: 095.2051 deg Eccentricity: 0.0012802 Arg of perigee: 148.4205 deg Mean anomaly: 211.7758 deg Mean motion: 14.27408810 rev/day Decay rate: 7.7e-07 rev/day^2 Epoch rev: 22090 Checksum: 293
Satellite: NOAA-11 Catalog number: 19531 Epoch time: 10065.35027120 Element set: 996 Inclination: 098.7685 deg RA of node: 156.1267 deg Eccentricity: 0.0012321 Arg of perigee: 080.8334 deg Mean anomaly: 279.4224 deg Mean motion: 14.14917051 rev/day Decay rate: -7.0e-08 rev/day^2 Epoch rev: 10659 Checksum: 287
Satellite: NOAA-12 Catalog number: 21263 Epoch time: 10065.46116431 Element set: 480 Inclination: 098.7697 deg RA of node: 078.6164 deg Eccentricity: 0.0013293 Arg of perigee: 103.9078 deg Mean anomaly: 256.3580 deg Mean motion: 14.25619878 rev/day Decay rate: 4.6e-07 rev/day^2 Epoch rev: 97776 Checksum: 328
Satellite: MET-3/5 Catalog number: 21655 Epoch time: 10067.90124691 Element set: 0757 Inclination: 082.5595 deg RA of node: 019.4825 deg Eccentricity: 0.0012230 Arg of perigee: 237.9987 deg Mean anomaly: 121.9978 deg Mean motion: 13.17023261 rev/day Decay rate: 5.1e-07 rev/day^2 Epoch rev: 89247 Checksum: 318
Satellite: MET-2/21 Catalog number: 22782 Epoch time: 10067.77557837 Element set: 0717 Inclination: 082.5506 deg RA of node: 332.1127 deg Eccentricity: 0.0021676 Arg of perigee: 328.3054 deg Mean anomaly: 031.6790 deg Mean motion: 13.83643955 rev/day Decay rate: -3.2e-07 rev/day^2 Epoch rev: 83419 Checksum: 311
Satellite: OKEAN-4 Catalog number: 23317 Epoch time: 10067.70682779 Element set: 0172 Inclination: 082.5376 deg RA of node: 087.6467 deg Eccentricity: 0.0021106 Arg of perigee: 209.2431 deg Mean anomaly: 150.7604 deg Mean motion: 14.82777182 rev/day Decay rate: 2.76e-06 rev/day^2 Epoch rev: 83156 Checksum: 308
